Location: Ellerstadt
(49.4644°N, 8.2615°E)
Time: 13:55:19
(UTC+00:00)

ISS - Pass Details

Date: 23 May 2021
Orbit: 419 x 422 km, 51.6° (Epoch: 25 June)

Event Time Altitude Azimuth Distance (km) Brightness Sun altitude
Rises 20:01:39 0° 274° (W) 2,370 1.0 -6.7°
Reaches altitude 10° 20:03:47 10° 279° (W) 1,506 0.0 -7.0°
Maximum altitude 20:07:07 57° 359° (N) 504 -3.1 -7.4°
Drops below altitude 10° 20:10:28 10° 79° (E) 1,508 -1.3 -7.8°
Enters shadow 20:12:33 - 84° (E) 2,358 -0.3 -8.0°
